Volver al catálogo

GEESAT 1-05

ActivoCienciaVLEO
NORAD 52789·PAYLOAD·🇨🇳 China

Lanzado Jun 2, 2022 desde Xichang Satellite Launch Center

Loading…

Próximos Pases (próximas 24 horas)

TLE

ActualizadoSource: Space-Track

Época: Sep 14, 2026, 14:59 UTC

1 52789U 22058E   26257.62472018  .00003218  00000-0  26750-3 0  9997
2 52789  49.9854 114.7324 0002883 122.4800 237.6425 15.01281414233646

Sigue GEESAT 1-05 en tiempo real con AllMySat

Download on the App Store